Weather History for Orlando International, FL

Change the Weather History Date:

Tuesday, April 2, 2013

  Actual Average Record
Temperature  
Mean Temperature 74 °F 69 °F  
Max Temperature 86 °F 80 °F 93 °F (1929)
Min Temperature 62 °F 58 °F 37 °F (1919)
Degree Days  
Heating Degree Days 0 1  
Month to date heating degree days 0 2  
Since 1 July heating degree days 461 560  
Cooling Degree Days 9 5  
Month to date cooling degree days 17 10  
Year to date cooling degree days 268 232  
Growing Degree Days 24 (Base 50)    
Moisture  
Dew Point 58 °F    
Average Humidity 69    
Maximum Humidity 100    
Minimum Humidity 37    
Precipitation  
Precipitation 0.00 in 0.11 in 1.74 in (1895)
Month to date precipitation 0.00 0.22  
Year to date precipitation 2.18 8.72  
Sea Level Pressure  
Sea Level Pressure 30.06 in    
Wind  
Wind Speed 7 mph (North)    
Max Wind Speed 14 mph    
Max Gust Speed 23 mph    
Visibility 10 miles    
Events      
T = Trace of Precipitation, MM = Missing Value Source: NWS Daily Summary

Daily Weather History Graph

Daily Weather History Graph

Search for Another Location

Airport:

Trip Planner

Search our weather history database for the weather conditions in past years. The results will help you decide how hot, cold, wet, or windy it might be!

Date:

Astronomy

Apr. 02, 2013 Rise Set
Actual Time 7:13 AM EDT 7:43 PM EDT
Civil Twilight 6:50 AM EDT 8:07 PM EDT
Nautical Twilight 6:22 AM EDT 8:35 PM EDT
Astronomical Twilight 5:54 AM EDT 9:03 PM EDT
Moon 1:27 AM EDT (4/2) 12:22 PM EDT (4/2)
Length of Visible Light 13h 17m
Length of Day
12h 30m
Waning Gibbous, 56% of the Moon is Illuminated
Apr 2
Waning Gibbous
Apr 3
Last Quarter
Apr 10
New
Apr 18
First Quarter
Apr 25
Full

Hourly Weather History & Observations

Time (EDT) Temp. Heat Index Dew Point Humidity Pressure Visibility Wind Dir Wind Speed Gust Speed Precip Events Conditions
12:53 AM 66.0 °F - 62.1 °F 87% 30.02 in 10.0 mi West 4.6 mph - N/A   Clear
1:53 AM 66.0 °F - 63.0 °F 90% 30.02 in 10.0 mi West 4.6 mph - N/A   Clear
2:53 AM 66.0 °F - 63.0 °F 90% 30.02 in 10.0 mi West 5.8 mph - N/A   Partly Cloudy
3:53 AM 64.0 °F - 63.0 °F 96% 30.01 in 8.0 mi West 5.8 mph - N/A   Clear
4:53 AM 64.0 °F - 62.1 °F 93% 30.03 in 8.0 mi West 3.5 mph - N/A   Clear
5:53 AM 64.0 °F - 62.1 °F 93% 30.04 in 8.0 mi West 6.9 mph - N/A   Clear
6:53 AM 63.0 °F - 62.1 °F 97% 30.04 in 10.0 mi WNW 4.6 mph - N/A   Clear
7:53 AM 64.0 °F - 62.1 °F 93% 30.06 in 10.0 mi WNW 3.5 mph - N/A   Partly Cloudy
8:53 AM 68.0 °F - 62.1 °F 81% 30.09 in 10.0 mi NW 9.2 mph - N/A   Partly Cloudy
9:53 AM 72.0 °F - 61.0 °F 68% 30.09 in 10.0 mi NNW 5.8 mph - N/A   Scattered Clouds
10:53 AM 78.1 °F - 57.0 °F 48% 30.09 in 10.0 mi ENE 5.8 mph - N/A   Scattered Clouds
11:53 AM 79.0 °F - 55.0 °F 44% 30.10 in 10.0 mi ENE 4.6 mph - N/A   Scattered Clouds
12:53 PM 80.1 °F 80.2 °F 55.9 °F 43% 30.09 in 10.0 mi Variable 5.8 mph - N/A   Scattered Clouds
1:53 PM 84.9 °F 83.7 °F 55.9 °F 37% 30.07 in 10.0 mi North 8.1 mph - N/A   Mostly Cloudy
2:53 PM 82.9 °F 81.9 °F 54.0 °F 37% 30.05 in 10.0 mi Variable 6.9 mph - N/A   Mostly Cloudy
3:53 PM 81.0 °F 80.5 °F 54.0 °F 39% 30.03 in 10.0 mi ENE 8.1 mph - N/A   Mostly Cloudy
4:53 PM 82.0 °F 81.3 °F 54.0 °F 38% 30.04 in 10.0 mi East 9.2 mph 23.0 mph N/A   Mostly Cloudy
5:53 PM 80.1 °F 79.9 °F 53.1 °F 39% 30.04 in 10.0 mi NE 10.4 mph - N/A   Mostly Cloudy
6:53 PM 78.1 °F - 53.1 °F 42% 30.05 in 10.0 mi East 13.8 mph - N/A   Scattered Clouds
7:53 PM 73.0 °F - 54.0 °F 51% 30.06 in 10.0 mi ENE 13.8 mph - N/A   Partly Cloudy
8:53 PM 70.0 °F - 55.9 °F 61% 30.07 in 10.0 mi ENE 10.4 mph - N/A   Clear
9:53 PM 68.0 °F - 57.0 °F 68% 30.09 in 10.0 mi ENE 8.1 mph - N/A   Clear
10:53 PM 66.0 °F - 57.9 °F 75% 30.09 in 10.0 mi ENE 4.6 mph - N/A   Clear
11:53 PM 64.0 °F - 57.9 °F 80% 30.10 in 10.0 mi East 4.6 mph - N/A   Clear